sat.trackr.live / text

‹ back to catalog

STARLINK-35183

NORAD 65646 · 2025-210AA

PAYLOAD ACTIVE UNKNOWN

§ Identity

Operator
Country
US
Launch date
2025-09-18
Launch site
AFETR
Launch vehicle
Mass (kg)
RCS (m²)

Purposes: comms

External: N2YO · Heavens-Above · Gunter

§ Orbital elements

Epoch: 2026-09-20T22:43:13.435392Z

Period
93.85 min
Inclination
53.1662°
Eccentricity
0.0001314
Mean motion
15.34413336 rev/d
Perigee alt
461.8 km
Apogee alt
463.6 km
Semi-major
6,840.8 km
B*
5.1639e-4
RAAN
119.5771°
Arg perigee
303.2424°
Mean anomaly
56.8452°
Rev number
5,763

§ Raw data

STARLINK-351831 65646U 25210AA  26263.94668328  .00017118  00000+0  51639-3 0  99962 65646  53.1662 119.5771 0001314 303.2424  56.8452 15.34413336 57634

JSON: /api/v1/satellites/65646 · /tle

For live sub-satellite position, see the globe view (requires WebGL).

§ Visibility from observer

Set your observer location to see the next 7 days of passes ≥ 10°. The values pass through the URL so the page stays shareable.

No JS? Fill the form by hand. The geolocation button needs JavaScript.